Location: Unspecified
(47.8330°N, 0.0000°E)
Time: 07:40:25
(UTC+00:00)

VELOX 1 - Pass Details

Date: 30 August 2019
Orbit: 630 x 643 km, 98.2° (Epoch: 22 September)

Event Time Altitude Azimuth Distance (km) Brightness Sun altitude
Exits shadow 00:08:59 19° 46° (NE) 1,497 ? -33.0°
Drops below altitude 10° 00:11:24 10° 14° (NNE) 2,029 ? -32.9°
Sets 00:14:03 0° 359° (N) 2,944 ? -32.9°
